Tracking 19795 objects as of 17-Jul-2019
HD Live streaming from Space Station
objects crossing your sky now

COSMOS 1275 DEB

Track COSMOS 1275 DEB now!
10-day predictions


NORAD ID: 12667
Int'l Code: 1981-053X
Perigee: 942.0 km
Apogee: 995.2 km
Inclination: 82.8 °
Period: 104.3 minutes
Semi major axis: 7339 km
RCS: 0.0155 m2 (small)
Launch date: June 4, 1981
Source: Commonwealth of Independent States (former USSR) (CIS)
Launch site: PLESETSK MISSILE AND SPACE COMPLEX (PKMTR)

Note: This is SATELLITE DEBRIS
aabbcc
Your satellite tracking list
Your tracking list is empty




NASA's NSSDC Master Catalog

Two Line Element Set (TLE):
1 12667U 81053X   19198.33115892  .00000167  00000-0  14363-3 0  9993
2 12667  82.8391 138.9293 0036306 343.9080 186.9586 13.80684828905785
Source of the keplerian elements: AFSPC